TimeWET,TemperatureF,Dew PointF,Humidity,Sea Level PressureIn,VisibilityMPH,Wind Direction,Wind SpeedMPH,Gust SpeedMPH,PrecipitationIn,Events,Conditions,WindDirDegrees,DateUTC
12:00 AM,58,55,85,30.14,6,South,6.9,,,,Partly Cloudy,180,2012-10-01 00:00:00
12:00 AM,57.2,55.4,94,30.15,6.2,South,6.9,-,N/A,,Scattered Clouds,180,2012-10-01 00:00:00
1:00 AM,57.2,53.6,88,30.15,6.2,South,4.6,-,N/A,,Partly Cloudy,180,2012-10-01 01:00:00
2:00 AM,57.2,53.6,88,30.15,-9999.0,SE,6.9,-,N/A,,Clear,140,2012-10-01 02:00:00
3:00 AM,56,54,90,30.12,6,SE,4.6,,,,,140,2012-10-01 03:00:00
3:00 AM,57.2,53.6,88,30.12,-9999.0,SE,4.6,-,N/A,,Clear,140,2012-10-01 03:00:00
4:00 AM,55.4,53.6,94,30.12,-9999.0,SE,6.9,-,N/A,,Clear,140,2012-10-01 04:00:00
5:00 AM,55.4,53.6,94,30.12,-9999.0,SE,6.9,-,N/A,,Clear,140,2012-10-01 05:00:00
6:00 AM,57,54,86,30.12,6,ESE,6.9,,,,Scattered Clouds,120,2012-10-01 06:00:00
6:00 AM,57.2,53.6,88,30.12,6.2,ESE,6.9,-,N/A,,Partly Cloudy,120,2012-10-01 06:00:00
7:00 AM,59.0,55.4,88,30.12,6.2,East,4.6,-,N/A,,Partly Cloudy,80,2012-10-01 07:00:00
8:00 AM,64.4,57.2,77,30.15,6.2,ENE,6.9,-,N/A,,Partly Cloudy,70,2012-10-01 08:00:00
9:00 AM,67,58,64,30.11,6,ENE,6.9,,,,,60,2012-10-01 09:00:00
9:00 AM,66.2,57.2,73,30.15,-9999.0,ENE,6.9,-,N/A,,Clear,60,2012-10-01 09:00:00
10:00 AM,68.0,57.2,68,30.18,-9999.0,NE,8.1,-,N/A,,Clear,50,2012-10-01 10:00:00
11:00 AM,71.6,57.2,60,30.18,6.2,NNE,6.9,-,N/A,,Partly Cloudy,20,2012-10-01 11:00:00
12:00 PM,72,56,47,30.09,6,NNE,3.5,,,,Scattered Clouds,20,2012-10-01 12:00:00
12:00 PM,71.6,55.4,57,30.15,6.2,NNE,3.5,-,N/A,,Partly Cloudy,20,2012-10-01 12:00:00
1:00 PM,75.2,57.2,53,30.15,6.2,NE,3.5,-,N/A,,Partly Cloudy,40,2012-10-01 13:00:00
2:00 PM,77.0,57.2,50,30.12,6.2,NE,5.8,-,N/A,,Partly Cloudy,50,2012-10-01 14:00:00
3:00 PM,79,54,32,30.03,6,NNW,4.6,,,,Scattered Clouds,340,2012-10-01 15:00:00
3:00 PM,78.8,55.4,44,30.12,6.2,NNW,4.6,-,N/A,,Partly Cloudy,340,2012-10-01 15:00:00
4:00 PM,80.6,60.8,51,30.12,6.2,NNW,6.9,-,N/A,,Partly Cloudy,340,2012-10-01 16:00:00
5:00 PM,78.8,60.8,54,30.12,6.2,NNW,6.9,-,N/A,,Partly Cloudy,340,2012-10-01 17:00:00
6:00 PM,73,57,47,30.07,6,NW,4.6,,,,Scattered Clouds,320,2012-10-01 18:00:00
6:00 PM,73.4,57.2,57,30.15,6.2,NW,4.6,-,N/A,,Unknown,320,2012-10-01 18:00:00
7:00 PM,68.0,57.2,68,30.15,6.2,WNW,2.3,-,N/A,,Partly Cloudy,300,2012-10-01 19:00:00
8:00 PM,68.0,59.0,73,30.18,-9999.0,WNW,4.6,-,N/A,,Partly Cloudy,300,2012-10-01 20:00:00
9:00 PM,65,59,74,30.14,6,SW,6.9,,,,,230,2012-10-01 21:00:00
9:00 PM,66.2,59.0,78,30.18,-9999.0,SW,6.9,-,N/A,,Clear,230,2012-10-01 21:00:00
10:00 PM,64.4,59.0,83,30.18,-9999.0,WSW,5.8,-,N/A,,Clear,240,2012-10-01 22:00:00
11:00 PM,60.8,57.2,88,30.18,-9999.0,WSW,4.6,-,N/A,,Clear,240,2012-10-01 23:00:00